Regional Weather Roundup
Issued by NWS

Home | Current Version | Previous Version | Text Only | Print | Product List | Glossary On
Versions: 1 2 3 4 5 6 7 8 9 10 11 12 13 14 15 16 17 18 19 20 21 22 23 24 25 26 27 28 29 30 31 32 33 34 35 36 37 38 39 40 41 42 43 44 45 46 47 48 49 50
534
ASUS44 KJAN 220810
RWRMS

MISSISSIPPI HOURLY WEATHER ROUNDUP
NATIONAL WEATHER SERVICE JACKSON MS
300 AM CDT MON SEP 22 2014

NOTE: "FAIR: INDICATES FEW OR NO CLOUDS BELOW 12,000 FEET WITH NO
SIGNIFICANT WEATHER AND/OR OBSTRUCTIONS TO VISIBILITY.

MSZ001>002-007>008-010>013-018>021-025>028-034>036-220900-
NORTHWEST MISSISSIPPI

CITY           SKY/WX    TMP DP  RH WIND       PRES   REMARKS
CLARKSDALE     FAIR      64  55  72 N9        30.10S
CLEVELAND      PTSUNNY   69  56  63 N9        30.07S
GREENWOOD      MOCLDY    69  64  84 NE3       30.06R
GREENVILLE     MOCLDY    73  53  49 N9        30.06S
GRENADA        PTSUNNY   68  59  73 N3        30.07R
OLIVE BRANCH   CLEAR     63  54  72 N8        30.11S
OXFORD         FAIR      63  52  67 NE5       30.11R
TUNICA         SUNNY     59  54  82 N7        30.11S
$$

MSZ003>006-009-014>017-022>024-029>033-037>039-220900-
NORTHEAST MISSISSIPPI

CITY           SKY/WX    TMP DP  RH WIND       PRES   REMARKS
COLUMBUS AFB   MOCLDY    70  57  64 N6        30.04S
CORINTH          N/A     59  52  77 N6        30.08S
GOLDN TRIANGLE CLOUDY    68  61  77 N5        30.05R
STARKVILLE     CLOUDY    70  59  68 NW3       30.05R
TUPELO         MOCLDY    65  53  65 N8        30.06R
$$

MSZ040-058-220900-
CENTRAL MISSISSIPPI

CITY           SKY/WX    TMP DP  RH WIND       PRES   REMARKS
JACKSON INTL   CLEAR     75  70  84 N13G20    30.02R
JACKSON HAWKNS CLEAR     76  69  79 N6        30.03R
MERIDIAN KEY   CLOUDY    72  68  87 CALM      30.02R
MERIDIAN NAS   CLOUDY    75  68  78 N8        30.02R
RAYMOND        FAIR      72  66  83 CALM      30.03R
VICKSBURG      MOCLDY    76  64  66 N12       30.03S
$$

MSZ059>079-220900-
SOUTH MISSISSIPPI

CITY           SKY/WX    TMP DP  RH WIND       PRES   REMARKS
BROOKHAVEN     FAIR      68  66  94 CALM      30.04S
COLUMBIA       FAIR      64  64 100 CALM      30.01S
HATTIESBURG    CLEAR     69  67  93 CALM      30.02S
MCCOMB         CLEAR     69  66  90 CALM      30.02F
NATCHEZ        CLEAR     72  68  88 CALM      30.03S
PINE BELT      CLEAR    N/A N/A N/A W3        30.02S
$$

MSZ080>082-220900-
COASTAL MISSISSIPPI

CITY           SKY/WX    TMP DP  RH WIND       PRES   REMARKS
BILOXI         CLEAR     74  71  91 N2        30.00S
PASCAGOULA     CLEAR     65  64  97 CALM      30.00S
GULFPORT       CLEAR     71  68  90 CALM      29.99F
$$



USA.gov is the U.S. government's official web portal to all federal, state and local government web resources and services.